User: anonymous   Login
Location: NJAA Observatory
(40.6819°N, 74.8979°W)
Time: 19:08:31
(UTC-04:00)
Language:

Iridium 4 - Orbit

View from above orbital plane
View from above orbital plane
View from above satellite
View from above satellite

Ground track
Ground track

The orbit data is extracted from the following two-line orbital elements,

1 24796U 97020E   15179.78169955 -.00000015  00000-0 -12290-4 0  9995
2 24796 086.3968 258.9757 0002144 091.7574 023.2710 14.34953451950139
Epoch (UTC): 28 June 2015 18:45:38
Eccentricity: 0.0002144
inclination: 86.3968°
perigee height: 773 km
apogee height: 777 km
right ascension of ascending node: 258.9757°
argument of perigee: 91.7574°
revolutions per day: 14.34953451
mean anomaly at epoch: 23.2710°
orbit number at epoch: 95013

The dashed part of the orbit path shows where the satellite is in the earth's shadow,  

DLR